Year,Month,Day,Hour,Minute,Value (Times are PST for temperature in C)
2009,09,21,00,00,9.90
2009,09,21,00,01,10.00
2009,09,21,00,02,10.10
2009,09,21,00,03,10.10
2009,09,21,00,04,10.10
2009,09,21,00,05,10.10
2009,09,21,00,06,10.10
2009,09,21,00,07,10.20
2009,09,21,00,08,10.30
2009,09,21,00,09,10.40
2009,09,21,00,10,10.40
2009,09,21,00,11,10.40
2009,09,21,00,12,10.60
2009,09,21,00,13,10.60
2009,09,21,00,14,10.50
2009,09,21,00,15,10.40
2009,09,21,00,16,10.40
2009,09,21,00,17,10.40
2009,09,21,00,18,10.40
2009,09,21,00,19,10.30
2009,09,21,00,20,10.20
2009,09,21,00,21,10.20
2009,09,21,00,22,10.20
2009,09,21,00,23,10.10
2009,09,21,00,24,10.10
2009,09,21,00,25,10.10
2009,09,21,00,26,10.10
2009,09,21,00,27,10.10
2009,09,21,00,28,10.10
2009,09,21,00,29,10.00
2009,09,21,00,30,9.90
2009,09,21,00,31,9.90
2009,09,21,00,32,9.90
2009,09,21,00,33,9.90
2009,09,21,00,34,9.90
2009,09,21,00,35,9.90
2009,09,21,00,36,9.90
2009,09,21,00,37,9.90
2009,09,21,00,38,9.90
2009,09,21,00,39,9.90
2009,09,21,00,40,9.90
2009,09,21,00,41,9.90
2009,09,21,00,42,9.90
2009,09,21,00,43,9.90
2009,09,21,00,44,9.90
2009,09,21,00,45,9.90
2009,09,21,00,46,9.80
2009,09,21,00,47,9.80
2009,09,21,00,48,9.80
2009,09,21,00,49,9.90
2009,09,21,00,50,9.90
2009,09,21,00,51,9.90
2009,09,21,00,52,9.90
2009,09,21,00,53,9.90
2009,09,21,00,54,9.90
2009,09,21,00,55,9.90
2009,09,21,00,56,9.80
2009,09,21,00,57,9.80
2009,09,21,00,58,9.80
2009,09,21,00,59,9.80
2009,09,21,01,00,9.80
2009,09,21,01,01,9.80
2009,09,21,01,02,9.80
2009,09,21,01,03,9.80
2009,09,21,01,04,9.80
2009,09,21,01,05,9.80
2009,09,21,01,06,9.80
2009,09,21,01,07,9.90
2009,09,21,01,08,9.90
2009,09,21,01,09,9.90
2009,09,21,01,10,10.00
2009,09,21,01,11,10.10
2009,09,21,01,12,10.10
2009,09,21,01,13,10.20
2009,09,21,01,14,10.30
2009,09,21,01,15,10.30
2009,09,21,01,16,10.30
2009,09,21,01,17,10.40
2009,09,21,01,18,10.40
2009,09,21,01,19,10.50
2009,09,21,01,20,10.60
2009,09,21,01,21,10.60
2009,09,21,01,22,10.60
2009,09,21,01,23,10.50
2009,09,21,01,24,10.40
2009,09,21,01,25,10.40
2009,09,21,01,26,10.40
2009,09,21,01,27,10.40
2009,09,21,01,28,10.30
2009,09,21,01,29,10.30
2009,09,21,01,30,10.20
2009,09,21,01,31,10.20
2009,09,21,01,32,10.10
2009,09,21,01,33,10.10
2009,09,21,01,34,10.10
2009,09,21,01,35,10.10
2009,09,21,01,36,10.00
2009,09,21,01,37,9.90
2009,09,21,01,38,9.90
2009,09,21,01,39,9.90
2009,09,21,01,40,9.90
2009,09,21,01,41,9.90
2009,09,21,01,42,9.90
2009,09,21,01,43,9.80
2009,09,21,01,44,9.80
2009,09,21,01,45,9.80
2009,09,21,01,46,9.80
2009,09,21,01,47,9.70
2009,09,21,01,48,9.70
2009,09,21,01,49,9.70
2009,09,21,01,50,9.70
2009,09,21,01,51,9.70
2009,09,21,01,52,9.70
2009,09,21,01,53,9.60
2009,09,21,01,54,9.60
2009,09,21,01,55,9.60
2009,09,21,01,56,9.60
2009,09,21,01,57,9.60
2009,09,21,01,58,9.60
2009,09,21,01,59,9.60
2009,09,21,02,00,9.60
2009,09,21,02,01,9.60
2009,09,21,02,02,9.70
2009,09,21,02,03,9.70
2009,09,21,02,04,9.70
2009,09,21,02,05,9.70
2009,09,21,02,06,9.70
2009,09,21,02,07,9.70
2009,09,21,02,08,9.70
2009,09,21,02,09,9.70
2009,09,21,02,10,9.80
2009,09,21,02,11,9.90
2009,09,21,02,12,9.90
2009,09,21,02,13,10.00
2009,09,21,02,14,10.10
2009,09,21,02,15,10.10
2009,09,21,02,16,10.10
2009,09,21,02,17,10.10
2009,09,21,02,18,10.10
2009,09,21,02,19,10.10
2009,09,21,02,20,10.10
2009,09,21,02,21,10.00
2009,09,21,02,22,9.90
2009,09,21,02,23,9.90
2009,09,21,02,24,9.90
2009,09,21,02,25,9.90
2009,09,21,02,26,9.80
2009,09,21,02,27,9.80
2009,09,21,02,28,9.80
2009,09,21,02,29,9.70
2009,09,21,02,30,9.70
2009,09,21,02,31,9.70
2009,09,21,02,32,9.70
2009,09,21,02,33,9.70
2009,09,21,02,34,9.70
2009,09,21,02,35,9.70
2009,09,21,02,36,9.70
2009,09,21,02,37,9.70
2009,09,21,02,38,9.70
2009,09,21,02,39,9.70
2009,09,21,02,40,9.60
2009,09,21,02,41,9.60
2009,09,21,02,42,9.60
2009,09,21,02,43,9.60
2009,09,21,02,44,9.60
2009,09,21,02,45,9.60
2009,09,21,02,46,9.60
2009,09,21,02,47,9.60
2009,09,21,02,48,9.60
2009,09,21,02,49,9.70
2009,09,21,02,50,9.70
2009,09,21,02,51,9.70
2009,09,21,02,52,9.70
2009,09,21,02,53,9.80
2009,09,21,02,54,9.80
2009,09,21,02,55,9.90
2009,09,21,02,56,9.90
2009,09,21,02,57,9.90
2009,09,21,02,58,9.90
2009,09,21,02,59,10.10
2009,09,21,03,00,10.10
2009,09,21,03,01,10.10
2009,09,21,03,02,10.10
2009,09,21,03,03,10.10
2009,09,21,03,04,10.00
2009,09,21,03,05,9.90
2009,09,21,03,06,9.90
2009,09,21,03,07,9.90
2009,09,21,03,08,9.90
2009,09,21,03,09,9.90
2009,09,21,03,10,9.90
2009,09,21,03,11,9.80
2009,09,21,03,12,9.80
2009,09,21,03,13,9.80
2009,09,21,03,14,9.80
2009,09,21,03,15,9.70
2009,09,21,03,16,9.70
2009,09,21,03,17,9.70
2009,09,21,03,18,9.70
2009,09,21,03,19,9.70
2009,09,21,03,20,9.70
2009,09,21,03,21,9.70
2009,09,21,03,22,9.70
2009,09,21,03,23,9.70
2009,09,21,03,24,9.70
2009,09,21,03,25,9.70
2009,09,21,03,26,9.70
2009,09,21,03,27,9.70
2009,09,21,03,28,9.70
2009,09,21,03,29,9.60
2009,09,21,03,30,9.60
2009,09,21,03,31,9.60
2009,09,21,03,32,9.60
2009,09,21,03,33,9.60
2009,09,21,03,34,9.60
2009,09,21,03,35,9.60
2009,09,21,03,36,9.60
2009,09,21,03,37,9.70
2009,09,21,03,38,9.70
2009,09,21,03,39,9.70
2009,09,21,03,40,9.70
2009,09,21,03,41,9.80
2009,09,21,03,42,9.80
2009,09,21,03,43,9.80
2009,09,21,03,44,9.80
2009,09,21,03,45,9.80
2009,09,21,03,46,9.80
2009,09,21,03,47,9.80
2009,09,21,03,48,9.80
2009,09,21,03,49,9.90
2009,09,21,03,50,9.90
2009,09,21,03,51,9.90
2009,09,21,03,52,9.90
2009,09,21,03,53,9.90
2009,09,21,03,54,9.90
2009,09,21,03,55,9.90
2009,09,21,03,56,9.90
2009,09,21,03,57,9.90
2009,09,21,03,58,9.80
2009,09,21,03,59,9.80
2009,09,21,04,00,9.80
2009,09,21,04,01,9.80
2009,09,21,04,02,9.80
2009,09,21,04,03,9.80
2009,09,21,04,04,9.80
2009,09,21,04,05,9.70
2009,09,21,04,06,9.70
2009,09,21,04,07,9.70
2009,09,21,04,08,9.70
2009,09,21,04,09,9.70
2009,09,21,04,10,9.60
2009,09,21,04,11,9.60
2009,09,21,04,12,9.50
2009,09,21,04,13,9.40
2009,09,21,04,14,9.40
2009,09,21,04,15,9.40
2009,09,21,04,16,9.30
2009,09,21,04,17,9.30
2009,09,21,04,18,9.30
2009,09,21,04,19,9.20
2009,09,21,04,20,9.20
2009,09,21,04,21,9.20
2009,09,21,04,22,9.20
2009,09,21,04,23,9.20
2009,09,21,04,24,9.10
2009,09,21,04,25,9.00
2009,09,21,04,26,9.00
2009,09,21,04,27,8.90
2009,09,21,04,28,8.80
2009,09,21,04,29,8.80
2009,09,21,04,30,8.80
2009,09,21,04,31,8.80
2009,09,21,04,32,8.80
2009,09,21,04,33,8.80
2009,09,21,04,34,8.80
2009,09,21,04,35,8.80
2009,09,21,04,36,8.80
2009,09,21,04,37,8.80
2009,09,21,04,38,8.80
2009,09,21,04,39,8.80
2009,09,21,04,40,8.80
2009,09,21,04,41,8.90
2009,09,21,04,42,8.90
2009,09,21,04,43,9.00
2009,09,21,04,44,9.00
2009,09,21,04,45,9.10
2009,09,21,04,46,9.20
2009,09,21,04,47,9.20
2009,09,21,04,48,9.30
2009,09,21,04,49,9.30
2009,09,21,04,50,9.40
2009,09,21,04,51,9.40
2009,09,21,04,52,9.50
2009,09,21,04,53,9.50
2009,09,21,04,54,9.60
2009,09,21,04,55,9.60
2009,09,21,04,56,9.60
2009,09,21,04,57,9.70
2009,09,21,04,58,9.70
2009,09,21,04,59,9.70
2009,09,21,05,00,9.70
2009,09,21,05,01,9.70
2009,09,21,05,02,9.70
2009,09,21,05,03,9.70
2009,09,21,05,04,9.70
2009,09,21,05,05,9.70
2009,09,21,05,06,9.70
2009,09,21,05,07,9.70
2009,09,21,05,08,9.70
2009,09,21,05,09,9.70
2009,09,21,05,10,9.70
2009,09,21,05,11,9.70
2009,09,21,05,12,9.70
2009,09,21,05,13,9.70
2009,09,21,05,14,9.70
2009,09,21,05,15,9.70
2009,09,21,05,16,9.60
2009,09,21,05,17,9.60
2009,09,21,05,18,9.60
2009,09,21,05,19,9.60
2009,09,21,05,20,9.60
2009,09,21,05,21,9.60
2009,09,21,05,22,9.50
2009,09,21,05,23,9.50
2009,09,21,05,24,9.50
2009,09,21,05,25,9.50
2009,09,21,05,26,9.50
2009,09,21,05,27,9.50
2009,09,21,05,28,9.50
2009,09,21,05,29,9.50
2009,09,21,05,30,9.50
2009,09,21,05,31,9.40
2009,09,21,05,32,9.40
2009,09,21,05,33,9.30
2009,09,21,05,34,9.30
2009,09,21,05,35,9.20
2009,09,21,05,36,9.20
2009,09,21,05,37,9.10
2009,09,21,05,38,9.00
2009,09,21,05,39,9.00
2009,09,21,05,40,9.00
2009,09,21,05,41,9.00
2009,09,21,05,42,9.00
2009,09,21,05,43,9.00
2009,09,21,05,44,9.00
2009,09,21,05,45,9.00
2009,09,21,05,46,9.00
2009,09,21,05,47,9.00
2009,09,21,05,48,9.00
2009,09,21,05,49,9.10
2009,09,21,05,50,9.10
2009,09,21,05,51,9.20
2009,09,21,05,52,9.20
2009,09,21,05,53,9.20
2009,09,21,05,54,9.30
2009,09,21,05,55,9.30
2009,09,21,05,56,9.40
2009,09,21,05,57,9.40
2009,09,21,05,58,9.40
2009,09,21,05,59,9.50
2009,09,21,06,00,9.50
2009,09,21,06,01,9.50
2009,09,21,06,02,9.60
2009,09,21,06,03,9.60
2009,09,21,06,04,9.70
2009,09,21,06,05,9.70
2009,09,21,06,06,9.70
2009,09,21,06,07,9.70
2009,09,21,06,08,9.70
2009,09,21,06,09,9.70
2009,09,21,06,10,9.70
2009,09,21,06,11,9.70
2009,09,21,06,12,9.80
2009,09,21,06,13,9.80
2009,09,21,06,14,9.70
2009,09,21,06,15,9.80
2009,09,21,06,16,9.80
2009,09,21,06,17,9.80
2009,09,21,06,18,9.80
2009,09,21,06,19,9.80
2009,09,21,06,20,9.90
2009,09,21,06,21,9.90
2009,09,21,06,22,9.90
2009,09,21,06,23,9.90
2009,09,21,06,24,10.10
2009,09,21,06,25,10.10
2009,09,21,06,26,10.10
2009,09,21,06,27,10.10
2009,09,21,06,28,10.20
2009,09,21,06,29,10.20
2009,09,21,06,30,10.10
2009,09,21,06,31,10.10
2009,09,21,06,32,10.10
2009,09,21,06,33,10.10
2009,09,21,06,34,10.10
2009,09,21,06,35,10.10
2009,09,21,06,36,10.10
2009,09,21,06,37,10.10
2009,09,21,06,38,10.10
2009,09,21,06,39,10.20
2009,09,21,06,40,10.20
2009,09,21,06,41,10.30
2009,09,21,06,42,10.30
2009,09,21,06,43,10.40
2009,09,21,06,44,10.40
2009,09,21,06,45,10.40
2009,09,21,06,46,10.40
2009,09,21,06,47,10.40
2009,09,21,06,48,10.40
2009,09,21,06,49,10.30
2009,09,21,06,50,10.20
2009,09,21,06,51,10.20
2009,09,21,06,52,10.10
2009,09,21,06,53,10.00
2009,09,21,06,54,9.90
2009,09,21,06,55,9.80
2009,09,21,06,56,9.70
2009,09,21,06,57,9.70
2009,09,21,06,58,9.70
2009,09,21,06,59,9.60
2009,09,21,07,00,9.50
2009,09,21,07,01,9.50
2009,09,21,07,02,9.50
2009,09,21,07,03,9.50
2009,09,21,07,04,9.50
2009,09,21,07,05,9.40
2009,09,21,07,06,9.40
2009,09,21,07,07,9.40
2009,09,21,07,08,9.30
2009,09,21,07,09,9.30
2009,09,21,07,10,9.20
2009,09,21,07,11,9.30
2009,09,21,07,12,9.30
2009,09,21,07,13,9.40
2009,09,21,07,14,9.50
2009,09,21,07,15,9.60
2009,09,21,07,16,9.70
2009,09,21,07,17,9.70
2009,09,21,07,18,9.80
2009,09,21,07,19,9.80
2009,09,21,07,20,9.90
2009,09,21,07,21,10.00
2009,09,21,07,22,10.10
2009,09,21,07,23,10.20
2009,09,21,07,24,10.20
2009,09,21,07,25,10.30
2009,09,21,07,26,10.30
2009,09,21,07,27,10.40
2009,09,21,07,28,10.40
2009,09,21,07,29,10.40
2009,09,21,07,30,10.40
2009,09,21,07,31,10.40
2009,09,21,07,32,10.40
2009,09,21,07,33,10.50
2009,09,21,07,34,10.60
2009,09,21,07,35,10.60
2009,09,21,07,36,10.60
2009,09,21,07,37,10.60
2009,09,21,07,38,10.60
2009,09,21,07,39,10.60
2009,09,21,07,40,10.60
2009,09,21,07,41,10.70
2009,09,21,07,42,10.70
2009,09,21,07,43,10.70
2009,09,21,07,44,10.70
2009,09,21,07,45,10.80
2009,09,21,07,46,10.80
2009,09,21,07,47,10.90
2009,09,21,07,48,10.90
2009,09,21,07,49,10.90
2009,09,21,07,50,11.00
2009,09,21,07,51,11.10
2009,09,21,07,52,11.10
2009,09,21,07,53,11.20
2009,09,21,07,54,11.20
2009,09,21,07,55,11.30
2009,09,21,07,56,11.40
2009,09,21,07,57,11.50
2009,09,21,07,58,11.60
2009,09,21,07,59,11.70
2009,09,21,08,00,11.80
2009,09,21,08,01,11.80
2009,09,21,08,02,11.90
2009,09,21,08,03,12.00
2009,09,21,08,04,12.10
2009,09,21,08,05,12.20
2009,09,21,08,06,12.30
2009,09,21,08,07,12.30
2009,09,21,08,08,12.40
2009,09,21,08,09,12.50
2009,09,21,08,10,12.60
2009,09,21,08,11,12.70
2009,09,21,08,12,12.70
2009,09,21,08,13,12.80
2009,09,21,08,14,12.80
2009,09,21,08,15,12.90
2009,09,21,08,16,12.90
2009,09,21,08,17,13.00
2009,09,21,08,18,13.00
2009,09,21,08,19,13.10
2009,09,21,08,20,13.10
2009,09,21,08,21,13.10
2009,09,21,08,22,13.20
2009,09,21,08,23,13.20
2009,09,21,08,24,13.20
2009,09,21,08,25,13.30
2009,09,21,08,26,13.30
2009,09,21,08,27,13.30
2009,09,21,08,28,13.30
2009,09,21,08,29,13.30
2009,09,21,08,30,13.30
2009,09,21,08,31,13.40
2009,09,21,08,32,13.40
2009,09,21,08,33,13.40
2009,09,21,08,34,13.40
2009,09,21,08,35,13.40
2009,09,21,08,36,13.40
2009,09,21,08,37,13.40
2009,09,21,08,38,13.40
2009,09,21,08,39,13.40
2009,09,21,08,40,13.40
2009,09,21,08,41,13.30
2009,09,21,08,42,13.30
2009,09,21,08,43,13.30
2009,09,21,08,44,13.30
2009,09,21,08,45,13.30
2009,09,21,08,46,13.40
2009,09,21,08,47,13.40
2009,09,21,08,48,13.40
2009,09,21,08,49,13.40
2009,09,21,08,50,13.50
2009,09,21,08,51,13.50
2009,09,21,08,52,13.50
2009,09,21,08,53,13.60
2009,09,21,08,54,13.60
2009,09,21,08,55,13.60
2009,09,21,08,56,13.70
2009,09,21,08,57,13.70
2009,09,21,08,58,13.70
2009,09,21,08,59,13.80
2009,09,21,09,00,13.80
2009,09,21,09,01,13.90
2009,09,21,09,02,13.90
2009,09,21,09,03,14.00
2009,09,21,09,04,14.00
2009,09,21,09,05,14.10
2009,09,21,09,06,14.10
2009,09,21,09,07,14.20
2009,09,21,09,08,14.20
2009,09,21,09,09,14.20
2009,09,21,09,10,14.30
2009,09,21,09,11,14.30
2009,09,21,09,12,14.30
2009,09,21,09,13,14.30
2009,09,21,09,14,14.40
2009,09,21,09,15,14.40
2009,09,21,09,16,14.40
2009,09,21,09,17,14.40
2009,09,21,09,18,14.40
2009,09,21,09,19,14.50
2009,09,21,09,20,14.50
2009,09,21,09,21,14.50
2009,09,21,09,22,14.60
2009,09,21,09,23,14.60
2009,09,21,09,24,14.60
2009,09,21,09,25,14.70
2009,09,21,09,26,14.70
2009,09,21,09,27,14.80
2009,09,21,09,28,14.80
2009,09,21,09,29,14.80
2009,09,21,09,30,14.90
2009,09,21,09,31,15.00
2009,09,21,09,32,15.00
2009,09,21,09,33,15.10
2009,09,21,09,34,15.10
2009,09,21,09,35,15.10
2009,09,21,09,36,15.20
2009,09,21,09,37,15.20
2009,09,21,09,38,15.30
2009,09,21,09,39,15.30
2009,09,21,09,40,15.40
2009,09,21,09,41,15.50
2009,09,21,09,42,15.60
2009,09,21,09,43,15.70
2009,09,21,09,44,15.80
2009,09,21,09,45,15.90
2009,09,21,09,46,16.00
2009,09,21,09,47,16.10
2009,09,21,09,48,16.20
2009,09,21,09,49,16.30
2009,09,21,09,50,16.30
2009,09,21,09,51,16.40
2009,09,21,09,52,16.40
2009,09,21,09,53,16.40
2009,09,21,09,54,16.50
2009,09,21,09,55,16.60
2009,09,21,09,56,16.60
2009,09,21,09,57,16.70
2009,09,21,09,58,16.70
2009,09,21,09,59,16.70
2009,09,21,10,00,16.70
2009,09,21,10,01,16.70
2009,09,21,10,02,16.70
2009,09,21,10,03,16.70
2009,09,21,10,04,16.70
2009,09,21,10,05,16.70
2009,09,21,10,06,16.70
2009,09,21,10,07,16.70
2009,09,21,10,08,16.70
2009,09,21,10,09,16.70
2009,09,21,10,10,16.70
2009,09,21,10,11,16.80
2009,09,21,10,12,16.90
2009,09,21,10,13,17.00
2009,09,21,10,14,17.00
2009,09,21,10,15,17.00
2009,09,21,10,16,17.10
2009,09,21,10,17,17.10
2009,09,21,10,18,17.10
2009,09,21,10,19,17.30
2009,09,21,10,20,17.30
2009,09,21,10,21,17.30
2009,09,21,10,22,17.30
2009,09,21,10,23,17.30
2009,09,21,10,24,17.40
2009,09,21,10,25,17.50
2009,09,21,10,26,17.50
2009,09,21,10,27,17.60
2009,09,21,10,28,17.70
2009,09,21,10,29,17.70
2009,09,21,10,30,17.80
2009,09,21,10,31,17.90
2009,09,21,10,32,17.80
2009,09,21,10,33,17.80
2009,09,21,10,34,17.80
2009,09,21,10,35,17.90
2009,09,21,10,36,17.80
2009,09,21,10,37,17.70
2009,09,21,10,38,17.70
2009,09,21,10,39,17.70
2009,09,21,10,40,17.70
2009,09,21,10,41,17.70
2009,09,21,10,42,17.70
2009,09,21,10,43,17.80
2009,09,21,10,44,17.80
2009,09,21,10,45,17.90
2009,09,21,10,46,17.90
2009,09,21,10,47,17.90
2009,09,21,10,48,17.90
2009,09,21,10,49,17.90
2009,09,21,10,50,17.90
2009,09,21,10,51,17.90
2009,09,21,10,52,18.00
2009,09,21,10,53,18.10
2009,09,21,10,54,18.20
2009,09,21,10,55,18.20
2009,09,21,10,56,18.20
2009,09,21,10,57,18.20
2009,09,21,10,58,18.20
2009,09,21,10,59,18.20
2009,09,21,11,00,18.30
2009,09,21,11,01,18.40
2009,09,21,11,02,18.50
2009,09,21,11,03,18.50
2009,09,21,11,04,18.60
2009,09,21,11,05,18.70
2009,09,21,11,06,18.80
2009,09,21,11,07,18.90
2009,09,21,11,08,18.90
2009,09,21,11,09,18.80
2009,09,21,11,10,18.90
2009,09,21,11,11,18.90
2009,09,21,11,12,19.00
2009,09,21,11,13,19.10
2009,09,21,11,14,19.10
2009,09,21,11,15,19.10
2009,09,21,11,16,19.10
2009,09,21,11,17,18.90
2009,09,21,11,18,18.80
2009,09,21,11,19,18.80
2009,09,21,11,20,18.70
2009,09,21,11,21,18.70
2009,09,21,11,22,18.70
2009,09,21,11,23,18.80
2009,09,21,11,24,18.90
2009,09,21,11,25,18.90
2009,09,21,11,26,18.90
2009,09,21,11,27,18.90
2009,09,21,11,28,18.90
2009,09,21,11,29,18.90
2009,09,21,11,30,18.90
2009,09,21,11,31,18.70
2009,09,21,11,32,18.50
2009,09,21,11,33,18.50
2009,09,21,11,34,18.60
2009,09,21,11,35,18.60
2009,09,21,11,36,18.70
2009,09,21,11,37,18.70
2009,09,21,11,38,18.70
2009,09,21,11,39,18.80
2009,09,21,11,40,18.80
2009,09,21,11,41,18.90
2009,09,21,11,42,18.90
2009,09,21,11,43,18.90
2009,09,21,11,44,18.90
2009,09,21,11,45,19.00
2009,09,21,11,46,19.10
2009,09,21,11,47,19.10
2009,09,21,11,48,19.10
2009,09,21,11,49,19.20
2009,09,21,11,50,19.30
2009,09,21,11,51,19.40
2009,09,21,11,52,19.40
2009,09,21,11,53,19.40
2009,09,21,11,54,19.40
2009,09,21,11,55,19.30
2009,09,21,11,56,19.30
2009,09,21,11,57,19.20
2009,09,21,11,58,19.10
2009,09,21,11,59,19.10
2009,09,21,12,00,19.10
2009,09,21,12,01,19.00
2009,09,21,12,02,18.90
2009,09,21,12,03,18.90
2009,09,21,12,04,18.90
2009,09,21,12,05,18.90
2009,09,21,12,06,19.00
2009,09,21,12,07,19.10
2009,09,21,12,08,19.20
2009,09,21,12,09,19.30
2009,09,21,12,10,19.40
2009,09,21,12,11,19.50
2009,09,21,12,12,19.50
2009,09,21,12,13,19.50
2009,09,21,12,14,19.50
2009,09,21,12,15,19.40
2009,09,21,12,16,19.40
2009,09,21,12,17,19.50
2009,09,21,12,18,19.50
2009,09,21,12,19,19.50
2009,09,21,12,20,19.60
2009,09,21,12,21,19.60
2009,09,21,12,22,19.60
2009,09,21,12,23,19.70
2009,09,21,12,24,19.80
2009,09,21,12,25,19.90
2009,09,21,12,26,19.80
2009,09,21,12,27,19.80
2009,09,21,12,28,19.80
2009,09,21,12,29,19.70
2009,09,21,12,30,19.80
2009,09,21,12,31,19.90
2009,09,21,12,32,19.90
2009,09,21,12,33,19.90
2009,09,21,12,34,19.90
2009,09,21,12,35,19.80
2009,09,21,12,36,19.80
2009,09,21,12,37,19.70
2009,09,21,12,38,19.70
2009,09,21,12,39,19.70
2009,09,21,12,40,19.70
2009,09,21,12,41,19.60
2009,09,21,12,42,19.60
2009,09,21,12,43,19.60
2009,09,21,12,44,19.60
2009,09,21,12,45,19.60
2009,09,21,12,46,19.60
2009,09,21,12,47,19.60
2009,09,21,12,48,19.80
2009,09,21,12,49,19.90
2009,09,21,12,50,19.90
2009,09,21,12,51,19.90
2009,09,21,12,52,20.00
2009,09,21,12,53,19.90
2009,09,21,12,54,19.90
2009,09,21,12,55,19.80
2009,09,21,12,56,19.90
2009,09,21,12,57,19.80
2009,09,21,12,58,19.90
2009,09,21,12,59,19.90
2009,09,21,13,00,19.90
2009,09,21,13,01,19.90
2009,09,21,13,02,20.00
2009,09,21,13,03,20.00
2009,09,21,13,04,19.90
2009,09,21,13,05,19.90
2009,09,21,13,06,20.10
2009,09,21,13,07,20.20
2009,09,21,13,08,20.20
2009,09,21,13,09,20.20
2009,09,21,13,10,20.20
2009,09,21,13,11,20.20
2009,09,21,13,12,20.20
2009,09,21,13,13,20.30
2009,09,21,13,14,20.30
2009,09,21,13,15,20.30
2009,09,21,13,16,20.30
2009,09,21,13,17,20.30
2009,09,21,13,18,20.30
2009,09,21,13,19,20.30
2009,09,21,13,20,20.40
2009,09,21,13,21,20.40
2009,09,21,13,22,20.40
2009,09,21,13,23,20.40
2009,09,21,13,24,20.30
2009,09,21,13,25,20.40
2009,09,21,13,26,20.50
2009,09,21,13,27,20.50
2009,09,21,13,28,20.50
2009,09,21,13,29,20.40
2009,09,21,13,30,20.40
2009,09,21,13,31,20.40
2009,09,21,13,32,20.40
2009,09,21,13,33,20.40
2009,09,21,13,34,20.50
2009,09,21,13,35,20.60
2009,09,21,13,36,20.50
2009,09,21,13,37,20.50
2009,09,21,13,38,20.50
2009,09,21,13,39,20.30
2009,09,21,13,40,20.20
2009,09,21,13,41,20.10
2009,09,21,13,42,20.10
2009,09,21,13,43,19.90
2009,09,21,13,44,19.90
2009,09,21,13,45,19.90
2009,09,21,13,46,19.90
2009,09,21,13,47,19.90
2009,09,21,13,48,19.90
2009,09,21,13,49,19.90
2009,09,21,13,50,19.90
2009,09,21,13,51,19.90
2009,09,21,13,52,19.90
2009,09,21,13,53,19.90
2009,09,21,13,54,19.90
2009,09,21,13,55,19.80
2009,09,21,13,56,19.80
2009,09,21,13,57,19.80
2009,09,21,13,58,19.80
2009,09,21,13,59,19.80
2009,09,21,14,00,19.80
2009,09,21,14,01,19.80
2009,09,21,14,02,19.80
2009,09,21,14,03,19.80
2009,09,21,14,04,19.80
2009,09,21,14,05,19.90
2009,09,21,14,06,20.00
2009,09,21,14,07,20.10
2009,09,21,14,08,20.10
2009,09,21,14,09,20.10
2009,09,21,14,10,20.10
2009,09,21,14,11,20.10
2009,09,21,14,12,20.10
2009,09,21,14,13,20.20
2009,09,21,14,14,20.20
2009,09,21,14,15,20.20
2009,09,21,14,16,20.10
2009,09,21,14,17,20.00
2009,09,21,14,18,20.10
2009,09,21,14,19,20.10
2009,09,21,14,20,20.10
2009,09,21,14,21,20.10
2009,09,21,14,22,20.00
2009,09,21,14,23,20.00
2009,09,21,14,24,20.10
2009,09,21,14,25,20.20
2009,09,21,14,26,20.20
2009,09,21,14,27,20.20
2009,09,21,14,28,20.10
2009,09,21,14,29,20.10
2009,09,21,14,30,20.10
2009,09,21,14,31,20.00
2009,09,21,14,32,19.90
2009,09,21,14,33,20.00
2009,09,21,14,34,20.00
2009,09,21,14,35,20.10
2009,09,21,14,36,20.20
2009,09,21,14,37,20.20
2009,09,21,14,38,20.10
2009,09,21,14,39,20.10
2009,09,21,14,40,20.20
2009,09,21,14,41,20.20
2009,09,21,14,42,20.10
2009,09,21,14,43,20.00
2009,09,21,14,44,20.10
2009,09,21,14,45,20.10
2009,09,21,14,46,20.20
2009,09,21,14,47,20.30
2009,09,21,14,48,20.30
2009,09,21,14,49,20.20
2009,09,21,14,50,20.20
2009,09,21,14,51,20.20
2009,09,21,14,52,20.10
2009,09,21,14,53,20.10
2009,09,21,14,54,20.10
2009,09,21,14,55,20.20
2009,09,21,14,56,20.20
2009,09,21,14,57,20.40
2009,09,21,14,58,20.50
2009,09,21,14,59,20.50
2009,09,21,15,00,20.50
2009,09,21,15,01,20.50
2009,09,21,15,02,20.40
2009,09,21,15,03,20.40
2009,09,21,15,04,20.40
2009,09,21,15,05,20.50
2009,09,21,15,06,20.50
2009,09,21,15,07,20.40
2009,09,21,15,08,20.40
2009,09,21,15,09,20.40
2009,09,21,15,10,20.60
2009,09,21,15,11,20.70
2009,09,21,15,12,20.70
2009,09,21,15,13,20.70
2009,09,21,15,14,20.70
2009,09,21,15,15,20.80
2009,09,21,15,16,20.80
2009,09,21,15,17,20.80
2009,09,21,15,18,20.80
2009,09,21,15,19,20.80
2009,09,21,15,20,20.80
2009,09,21,15,21,20.70
2009,09,21,15,22,20.70
2009,09,21,15,23,20.80
2009,09,21,15,24,20.80
2009,09,21,15,25,20.80
2009,09,21,15,26,20.80
2009,09,21,15,27,20.90
2009,09,21,15,28,21.00
2009,09,21,15,29,21.20
2009,09,21,15,30,21.30
2009,09,21,15,31,21.30
2009,09,21,15,32,21.40
2009,09,21,15,33,21.50
2009,09,21,15,34,21.60
2009,09,21,15,35,21.60
2009,09,21,15,36,21.60
2009,09,21,15,37,21.70
2009,09,21,15,38,21.70
2009,09,21,15,39,21.80
2009,09,21,15,40,21.70
2009,09,21,15,41,21.60
2009,09,21,15,42,21.60
2009,09,21,15,43,21.60
2009,09,21,15,44,21.70
2009,09,21,15,45,21.70
2009,09,21,15,46,21.70
2009,09,21,15,47,21.70
2009,09,21,15,48,21.70
2009,09,21,15,49,21.70
2009,09,21,15,50,21.70
2009,09,21,15,51,21.70
2009,09,21,15,52,21.70
2009,09,21,15,53,21.70
2009,09,21,15,54,21.60
2009,09,21,15,55,21.60
2009,09,21,15,56,21.60
2009,09,21,15,57,21.60
2009,09,21,15,58,21.60
2009,09,21,15,59,21.60
2009,09,21,16,00,21.60
2009,09,21,16,01,21.60
2009,09,21,16,02,21.60
2009,09,21,16,03,21.60
2009,09,21,16,04,21.60
2009,09,21,16,05,21.60
2009,09,21,16,06,21.60
2009,09,21,16,07,21.60
2009,09,21,16,08,21.60
2009,09,21,16,09,21.60
2009,09,21,16,10,21.60
2009,09,21,16,11,21.60
2009,09,21,16,12,21.60
2009,09,21,16,13,21.60
2009,09,21,16,14,21.40
2009,09,21,16,15,21.40
2009,09,21,16,16,21.40
2009,09,21,16,17,21.40
2009,09,21,16,18,21.40
2009,09,21,16,19,21.30
2009,09,21,16,20,21.40
2009,09,21,16,21,21.30
2009,09,21,16,22,21.30
2009,09,21,16,23,21.30
2009,09,21,16,24,21.30
2009,09,21,16,25,21.40
2009,09,21,16,26,21.40
2009,09,21,16,27,21.40
2009,09,21,16,28,21.40
2009,09,21,16,29,21.40
2009,09,21,16,30,21.40
2009,09,21,16,31,21.30
2009,09,21,16,32,21.30
2009,09,21,16,33,21.40
2009,09,21,16,34,21.40
2009,09,21,16,35,21.40
2009,09,21,16,36,21.40
2009,09,21,16,37,21.40
2009,09,21,16,38,21.40
2009,09,21,16,39,21.40
2009,09,21,16,40,21.40
2009,09,21,16,41,21.30
2009,09,21,16,42,21.30
2009,09,21,16,43,21.30
2009,09,21,16,44,21.40
2009,09,21,16,45,21.40
2009,09,21,16,46,21.40
2009,09,21,16,47,21.40
2009,09,21,16,48,21.50
2009,09,21,16,49,21.60
2009,09,21,16,50,21.60
2009,09,21,16,51,21.60
2009,09,21,16,52,21.60
2009,09,21,16,53,21.40
2009,09,21,16,54,21.40
2009,09,21,16,55,21.40
2009,09,21,16,56,21.40
2009,09,21,16,57,21.40
2009,09,21,16,58,21.40
2009,09,21,16,59,21.40
2009,09,21,17,00,21.40
2009,09,21,17,01,21.40
2009,09,21,17,02,21.30
2009,09,21,17,03,21.30
2009,09,21,17,04,21.30
2009,09,21,17,05,21.30
2009,09,21,17,06,21.30
2009,09,21,17,07,21.30
2009,09,21,17,08,21.30
2009,09,21,17,09,21.30
2009,09,21,17,10,21.20
2009,09,21,17,11,21.20
2009,09,21,17,12,21.20
2009,09,21,17,13,21.30
2009,09,21,17,14,21.30
2009,09,21,17,15,21.30
2009,09,21,17,16,21.30
2009,09,21,17,17,21.20
2009,09,21,17,18,21.20
2009,09,21,17,19,21.20
2009,09,21,17,20,21.20
2009,09,21,17,21,21.20
2009,09,21,17,22,21.20
2009,09,21,17,23,21.10
2009,09,21,17,24,21.10
2009,09,21,17,25,21.10
2009,09,21,17,26,21.10
2009,09,21,17,27,21.10
2009,09,21,17,28,21.10
2009,09,21,17,29,21.10
2009,09,21,17,30,21.20
2009,09,21,17,31,21.20
2009,09,21,17,32,21.20
2009,09,21,17,33,21.20
2009,09,21,17,34,21.20